Weather History for Marion, IN

Change the Weather History Date:

Friday, March 8, 2013

  Actual Average (KMIE) Record (KMIE)
Temperature  
Mean Temperature 28 °F 36 °F  
Max Temperature 41 °F 46 °F 75 °F (1974)
Min Temperature 20 °F 28 °F 9 °F (1984)
Degree Days  
Heating Degree Days 36 28  
Month to date heating degree days 238  
Since 1 July heating degree days 4621  
Cooling Degree Days 0 0  
Month to date cooling degree days 0  
Year to date cooling degree days 0  
Moisture  
Dew Point 21 °F    
Average Humidity 70    
Maximum Humidity 93    
Minimum Humidity 52    
Precipitation  
Precipitation 0.00 in 0.09 in 0.89 in (1985)
Month to date precipitation 0.70  
Year to date precipitation 5.24  
Sea Level Pressure  
Sea Level Pressure 30.43 in    
Wind  
Wind Speed 3 mph (ESE)    
Max Wind Speed 8 mph    
Max Gust Speed -    
Visibility 7 miles    
Events Snow    
T = Trace of Precipitation, MM = Missing Value Source: NWS Daily Summary

Daily Weather History Graph

Daily Weather History Graph

Search for Another Location

Airport:

Trip Planner

Search our weather history database for the weather conditions in past years. The results will help you decide how hot, cold, wet, or windy it might be!

Date:

Astronomy

Mar. 08, 2013 Rise Set
Actual Time 7:05 AM EST 6:42 PM EST
Civil Twilight 6:37 AM EST 7:09 PM EST
Nautical Twilight 6:06 AM EST 7:41 PM EST
Astronomical Twilight 5:34 AM EST 8:12 PM EST
Moon 4:49 AM EST (3/8) 3:36 PM EST (3/8)
Length of Visible Light 12h 31m
Length of Day
11h 37m
Waning Crescent, 12% of the Moon is Illuminated
Mar 8
Waning Crescent
Mar 11
New
Mar 19
First Quarter
Mar 27
Full
Apr 3
Last Quarter

Hourly Weather History & Observations

Time (EST) Temp. Windchill Dew Point Humidity Pressure Visibility Wind Dir Wind Speed Gust Speed Precip Events Conditions
12:15 AM 28.6 °F 24.8 °F 22.1 °F 77% 30.40 in 7.0 mi North 3.5 mph - N/A   Clear
12:35 AM 28.2 °F 24.4 °F 21.6 °F 76% 30.40 in 7.0 mi North 3.5 mph - N/A   Clear
12:55 AM 27.3 °F 23.4 °F 21.2 °F 78% 30.40 in 7.0 mi North 3.5 mph - N/A Snow Light Snow
1:15 AM 27.1 °F 23.2 °F 21.4 °F 79% 30.40 in 7.0 mi North 3.5 mph - N/A   Clear
1:35 AM 28.0 °F 24.2 °F 21.4 °F 76% 30.40 in 7.0 mi North 3.5 mph - N/A Snow Light Snow
1:55 AM 27.7 °F 23.8 °F 21.0 °F 76% 30.41 in 7.0 mi North 3.5 mph - N/A Snow Light Snow
2:15 AM 27.1 °F 23.2 °F 20.5 °F 76% 30.41 in 7.0 mi North 3.5 mph - N/A Snow Light Snow
2:35 AM 26.1 °F 21.9 °F 19.6 °F 76% 30.41 in 7.0 mi North 3.5 mph - N/A   Clear
2:55 AM 23.4 °F 18.9 °F 18.9 °F 83% 30.41 in 5.0 mi North 3.5 mph - N/A   Clear
3:15 AM 23.4 °F 17.4 °F 19.2 °F 84% 30.41 in 7.0 mi North 4.6 mph - N/A   Clear
3:35 AM 23.7 °F 19.3 °F 19.2 °F 83% 30.41 in 10.0 mi North 3.5 mph - N/A   Clear
3:55 AM 22.3 °F - 17.8 °F 83% 30.41 in 5.0 mi Calm Calm - N/A Snow Light Snow
4:15 AM 21.0 °F - 17.4 °F 86% 30.41 in 7.0 mi Calm Calm - N/A Snow Light Snow
4:35 AM 21.0 °F - 17.8 °F 87% 30.42 in 7.0 mi Calm Calm - N/A   Clear
4:55 AM 21.2 °F - 18.1 °F 88% 30.43 in 5.0 mi Calm Calm - N/A Snow Light Snow
5:15 AM 20.8 °F - 18.0 °F 89% 30.43 in 5.0 mi Calm Calm - N/A Snow Light Snow
5:35 AM 20.1 °F - 17.4 °F 89% 30.44 in 4.0 mi Calm Calm - N/A Snow Light Snow
5:55 AM 20.3 °F - 18.0 °F 91% 30.45 in 4.0 mi Calm Calm - N/A Snow Light Snow
6:15 AM 20.8 °F - 18.3 °F 90% 30.45 in 5.0 mi Calm Calm - N/A Snow Light Snow
6:35 AM 20.5 °F - 18.1 °F 91% 30.45 in 5.0 mi Calm Calm - N/A Snow Light Snow
7:15 AM 20.5 °F 15.6 °F 18.9 °F 93% 30.45 in 4.0 mi ENE 3.5 mph - N/A Snow Light Snow
7:35 AM 20.5 °F - 18.5 °F 92% 30.45 in 4.0 mi Calm Calm - N/A   Clear
7:55 AM 20.7 °F - 19.0 °F 93% 30.46 in 4.0 mi Calm Calm - N/A   Clear
8:15 AM 21.9 °F - 20.3 °F 93% 30.46 in 4.0 mi Calm Calm - N/A   Clear
8:35 AM 23.7 °F - 21.4 °F 91% 30.47 in 4.0 mi Calm Calm - N/A   Clear
8:55 AM 25.0 °F - 21.6 °F 87% 30.48 in 7.0 mi Calm Calm - N/A   Clear
9:15 AM 26.6 °F - 21.9 °F 82% 30.48 in 5.0 mi Calm Calm - N/A   Haze
9:35 AM 29.5 °F 25.9 °F 21.9 °F 73% 30.48 in 10.0 mi East 3.5 mph - N/A   Clear
9:55 AM 31.5 °F 28.1 °F 22.1 °F 68% 30.48 in 7.0 mi ESE 3.5 mph - N/A   Clear
10:15 AM 32.4 °F 27.9 °F 21.7 °F 65% 30.48 in 10.0 mi ESE 4.6 mph - N/A   Clear
10:35 AM 33.3 °F 27.1 °F 21.0 °F 61% 30.49 in 7.0 mi ESE 6.9 mph - N/A   Clear
10:55 AM 33.8 °F 28.6 °F 21.0 °F 60% 30.48 in 10.0 mi SE 5.8 mph - N/A   Clear
11:15 AM 34.0 °F 29.8 °F 21.7 °F 61% 30.48 in 10.0 mi SSE 4.6 mph - N/A   Clear
11:35 AM 34.5 °F 29.4 °F 21.6 °F 59% 30.48 in 10.0 mi SSE 5.8 mph - N/A   Clear
11:55 AM 34.7 °F 29.6 °F 21.2 °F 58% 30.47 in 10.0 mi SSE 5.8 mph - N/A   Clear
12:15 PM 34.9 °F 30.8 °F 21.0 °F 57% 30.46 in 10.0 mi South 4.6 mph - N/A   Clear
12:35 PM 35.2 °F 32.4 °F 20.8 °F 56% 30.46 in 7.0 mi SE 3.5 mph - N/A   Clear
12:55 PM 35.6 °F 30.7 °F 21.6 °F 57% 30.46 in 10.0 mi South 5.8 mph - N/A   Clear
1:15 PM 35.6 °F 31.7 °F 21.9 °F 58% 30.46 in 10.0 mi SSE 4.6 mph - N/A   Clear
1:35 PM 35.8 °F 31.9 °F 22.3 °F 58% 30.46 in 7.0 mi SSW 4.6 mph - N/A   Clear
1:55 PM 36.0 °F 31.1 °F 22.1 °F 57% 30.45 in 10.0 mi South 5.8 mph - N/A   Clear
2:15 PM 36.1 °F 32.3 °F 21.6 °F 56% 30.45 in 7.0 mi South 4.6 mph - N/A   Clear
2:35 PM 36.3 °F 32.5 °F 21.4 °F 55% 30.44 in 7.0 mi South 4.6 mph - N/A   Clear
2:55 PM 36.5 °F 32.7 °F 21.4 °F 54% 30.43 in 10.0 mi South 4.6 mph - N/A   Clear
3:15 PM 36.5 °F 32.7 °F 21.7 °F 55% 30.42 in 7.0 mi SSE 4.6 mph - N/A   Clear
3:35 PM 36.9 °F 31.4 °F 21.9 °F 55% 30.42 in 10.0 mi SE 6.9 mph - N/A   Clear
3:55 PM 37.2 °F 32.6 °F 21.7 °F 54% 30.42 in 7.0 mi SE 5.8 mph - N/A   Clear
4:15 PM 37.0 °F 32.4 °F 21.6 °F 54% 30.41 in 5.0 mi SE 5.8 mph - N/A   Haze
4:35 PM 37.2 °F 32.6 °F 21.2 °F 52% 30.41 in 10.0 mi SE 5.8 mph - N/A   Clear
4:55 PM 37.0 °F 31.6 °F 21.7 °F 54% 30.40 in 7.0 mi SE 6.9 mph - N/A   Clear
5:15 PM 36.9 °F 33.1 °F 22.1 °F 55% 30.40 in 7.0 mi ESE 4.6 mph - N/A   Clear
5:35 PM 36.5 °F 31.8 °F 21.4 °F 54% 30.40 in 5.0 mi ESE 5.8 mph - N/A   Haze
5:55 PM 36.0 °F 31.1 °F 21.4 °F 55% 30.40 in 7.0 mi East 5.8 mph - N/A   Clear
6:15 PM 35.2 °F 30.3 °F 21.4 °F 57% 30.40 in 10.0 mi East 5.8 mph - N/A   Clear
6:35 PM 34.7 °F 28.1 °F 21.0 °F 57% 30.40 in 7.0 mi East 8.1 mph - N/A   Clear
6:55 PM 33.6 °F 29.4 °F 20.8 °F 59% 30.40 in 10.0 mi East 4.6 mph - N/A   Clear
7:15 PM 33.1 °F 28.7 °F 20.5 °F 60% 30.41 in 10.0 mi East 4.6 mph - N/A   Clear
7:35 PM 32.4 °F 26.9 °F 20.3 °F 61% 30.41 in 10.0 mi East 5.8 mph - N/A   Clear
7:55 PM 32.0 °F 27.5 °F 20.3 °F 62% 30.40 in 10.0 mi East 4.6 mph - N/A   Clear
8:15 PM 31.8 °F 28.5 °F 20.1 °F 62% 30.40 in 7.0 mi ESE 3.5 mph - N/A Snow Light Snow
8:35 PM 30.7 °F 27.3 °F 20.8 °F 67% 30.41 in 7.0 mi ESE 3.5 mph - N/A Snow Light Snow
8:55 PM 30.2 °F - 21.2 °F 69% 30.41 in 7.0 mi Calm Calm - N/A Snow Light Snow
9:15 PM 30.6 °F 25.8 °F 20.5 °F 66% 30.41 in 5.0 mi ESE 4.6 mph - N/A Snow Light Snow
9:35 PM 29.7 °F 24.7 °F 20.3 °F 68% 30.40 in 10.0 mi East 4.6 mph - N/A   Clear
9:55 PM 29.5 °F 23.4 °F 20.3 °F 69% 30.39 in 7.0 mi East 5.8 mph - N/A Snow Light Snow
10:15 PM 29.5 °F 23.4 °F 20.7 °F 70% 30.39 in 7.0 mi East 5.8 mph - N/A Snow Light Snow
10:35 PM 30.0 °F 24.1 °F 21.2 °F 70% 30.39 in 7.0 mi ESE 5.8 mph - N/A   Clear
10:55 PM 29.7 °F 24.7 °F 21.2 °F 71% 30.39 in 7.0 mi ESE 4.6 mph - N/A   Clear
11:15 PM 29.7 °F 26.1 °F 21.0 °F 70% 30.39 in 7.0 mi ESE 3.5 mph - N/A Snow Light Snow
11:35 PM 28.9 °F 23.9 °F 21.0 °F 72% 30.39 in 7.0 mi ESE 4.6 mph - N/A Snow Light Snow
11:55 PM 28.6 °F 21.5 °F 21.2 °F 74% 30.38 in 10.0 mi ESE 6.9 mph - N/A   Clear